Location: Wyoming Infrared Observatory
(41.0971°N, 105.9765°W)
Time: 12:50:02
(UTC-06:00)

Daily predictions for brighter satellites

Satellite Brightness Start Highest point End
(mag) Time Altitude Azimuth Time Altitude Azimuth Time Altitude Azimuth
ALOS 2.5 20:48:38 10° S 20:53:19 79° W 20:58:00 10° NNW
Cosmos 158 Rocket 4.0 20:49:22 10° SSW 20:54:25 89° WNW 20:59:40 10° NNE
Cosmos 2233 Rocket 4.2 20:49:04 10° N 20:55:21 81° W 21:01:32 10° S
SeaSat 1 3.4 20:51:07 10° ESE 20:55:32 34° NE 20:59:58 10° N
Cosmos 2058 Rocket 3.3 20:54:40 10° N 20:58:58 51° E 21:03:12 10° SSE
YAOGAN 11 4.2 20:55:02 10° SSE 20:59:24 86° WSW 21:03:46 10° NNW
APEX 4.3 20:59:00 10° N 21:02:42 38° ENE 21:07:24 10° SE
Cosmos 2098 Rocket 3.7 21:00:15 10° NNW 21:03:25 45° W 21:07:16 10° SSW
Cosmos 1464 Rocket 4.2 20:57:59 10° N 21:03:59 55° E 21:10:01 10° SSE
Cosmos 1461 4.2 21:03:32 10° NNW 21:07:22 29° NE 21:11:01 10° ESE
Meteor 1-19 Rocket 4.2 21:01:45 10° S 21:07:23 87° E 21:13:00 10° N
Meteor 2-4 Rocket 3.9 21:02:56 10° S 21:08:42 67° E 21:14:35 10° NNE
CZ-2C R/B 0.7 21:07:21 10° S 21:09:39 68° W 21:11:57 10° NNW
deb Chang Zheng 4 3.6 21:05:23 10° NNE 21:09:48 68° ESE 21:14:08 10° S
Cosmos 2251 Rocket 3.8 21:05:57 10° SSW 21:11:16 78° WNW 21:16:39 10° NNE
Cosmos 2333 Rocket 3.7 21:06:32 10° SW 21:11:52 42° WNW 21:17:14 10° NNE
PSLV R/B 4.4 21:09:29 11° SE 21:12:01 27° ENE 21:14:42 10° NNE
Cosmos 2297 3.8 21:08:54 10° NNW 21:14:38 84° WSW 21:20:22 10° SSE
H-2A R/B 4.0 21:12:07 10° S 21:15:52 42° W 21:19:40 10° NNW
Cosmos 2034 Rocket 4.2 21:15:39 10° N 21:21:57 58° E 21:28:09 10° SSE
ATLAS 3B R/B 4.2 21:17:19 10° SE 21:21:57 17° ESE 21:26:33 10° ENE
Cosmos 1606 Rocket 4.4 21:19:16 10° NNW 21:23:36 52° W 21:27:52 10° S
ERS-1 Rocket 3.2 21:18:38 10° S 21:23:38 73° WSW 21:28:40 10° NNW
Envisat 3.1 21:19:58 10° SSE 21:24:57 60° ENE 21:29:58 10° N
Cosmos 1110 Rocket 4.5 21:21:39 10° NNW 21:26:53 62° WSW 21:32:03 10° S
YAOGAN 6 4.1 21:24:55 14° ESE 21:27:14 24° ENE 21:30:15 10° NNE
H-2A R/B 2.3 21:26:21 10° S 21:30:32 68° WSW 21:34:52 10° NNW
Abrixas rocket 2.2 21:30:50 10° WNW 21:34:17 89° NE 21:36:37 19° ESE
USA 234 3.5 21:30:35 12° ESE 21:36:34 66° NE 21:43:05 10° NW
ATLAS CENTAUR R/B 3.9 21:35:01 10° WSW 21:39:30 32° NW 21:44:02 10° NNE
Cosmos 1626 Rocket 3.6 21:35:30 10° S 21:39:53 64° E 21:44:16 10° NNE
MetOp-A 4.3 21:37:42 15° SSE 21:42:05 60° ENE 21:47:22 10° N
PSLV R/B 3.8 21:50:23 10° SW 21:53:44 40° SSE 21:55:24 24° ESE
Cosmos 2228 3.6 21:49:51 10° NNW 21:54:11 57° W 21:58:26 10° S
Cosmos 2278 Rocket 4.5 21:51:26 10° NW 21:55:21 19° W 21:59:16 10° SW
Atlas Centaur 2 3.7 21:48:48 10° SW 21:55:35 32° SSE 22:00:55 17° ESE
Aureole 2 Rocket 3.4 21:51:49 10° SSW 21:55:43 54° WNW 21:59:18 10° N
Cosmos 1939 Rocket 3.9 21:54:37 10° S 21:58:36 44° W 22:02:36 10° NNW
H-2A R/B 3.3 21:59:58 18° ESE 22:02:17 25° ENE 22:06:18 10° NNE
CZ-4 R/B 4.2 21:58:37 10° NNE 22:03:28 50° E 22:06:34 21° SSE
COSMOS 2455 2.9 22:00:16 10° SSW 22:06:07 59° ESE 22:12:02 10° NE
Cosmos 1666 4.0 22:02:46 10° NNW 22:06:23 38° W 22:09:52 11° SSW
Milstar 3 Cent rocket 4.1 22:03:26 10° WSW 22:06:26 13° SSW 22:08:18 11° S
SPOT 5 3.2 22:06:11 15° S 22:09:40 53° W 22:13:56 10° NNW
Cosmos 2369 Rocket 3.0 22:04:54 10° N 22:10:11 38° ENE 22:13:08 23° ESE
SPOT 1/Viking Rocket 3.5 22:07:22 24° SSE 22:10:34 77° ENE 22:15:45 10° N
Lacrosse 5 rocket 4.0 22:10:11 10° W 22:13:15 21° NNW 22:16:28 10° NNE
ARGOS 3.2 22:10:54 26° SSE 22:14:00 66° ENE 22:19:24 10° N
SL-16 R/B 4.0 22:10:20 10° WSW 22:15:21 32° WNW 22:20:25 10° N
Geosat 4.1 22:14:11 10° NE 22:19:08 54° ESE 22:22:13 22° S
Cosmos 1190 Rocket 4.5 22:17:39 29° SSE 22:19:38 40° ESE 22:24:35 10° NE
Landsat 7 4.3 22:18:56 30° ESE 22:20:48 46° ENE 22:25:21 10° N
NOAA 11 4.2 22:19:15 28° SSE 22:22:08 71° ENE 22:27:32 10° N
NAVSTAR 52 R/B(PAM-D 4.4 22:21:08 10° W 22:25:09 51° SSW 22:25:14 51° S
Meteor 1-22 Rocket 4.5 22:22:10 10° N 22:27:36 53° ENE 22:29:58 32° SE
BREEZE M DEB (TANK) 1.8 22:27:41 10° WNW 22:29:20 49° WNW 22:29:20 49° WNW
Lacrosse 4 Rocket 2.6 22:31:19 25° E 22:31:19 25° E 22:33:46 10° NE
Cosmos 1758 Rocket 4.0 22:30:16 39° ESE 22:31:01 42° E 22:35:10 10° NNE
SeaSat 1 3.7 22:29:57 17° SSW 22:33:00 33° WSW 22:37:28 10° NW
SL-08 RB Rocket 3.6 22:33:23 38° SSE 22:35:08 88° E 22:39:42 10° NNW
CARTOSAT-1 4.1 22:34:42 38° ESE 22:35:41 45° ENE 22:39:50 10° N
Cosmos 1515 4.0 22:33:52 28° SSW 22:35:43 64° W 22:39:34 10° N
Terra 2.3 22:35:13 35° ESE 22:36:36 46° ENE 22:41:09 10° N
CZ-4B R/B 4.2 22:33:10 10° N 22:38:05 53° WNW 22:43:07 10° SSW
Cosmos 1346 Rocket 2.7 22:38:36 56° SE 22:39:01 60° E 22:42:53 10° NNE
Cosmos 1066 Rocket 4.2 22:39:23 26° S 22:42:42 88° E 22:48:32 10° N
Kosmos-1675 3.6 22:46:03 52° SE 22:46:17 53° ESE 22:54:01 10° NE
Cosmos 1461 4.3 22:42:52 10° NW 22:46:29 28° WSW 22:47:38 24° SW
Cosmos 1825 Rocket 3.8 22:47:30 32° SSW 22:49:29 68° W 22:53:56 10° N
Cosmos 1758 4.5 22:53:59 10° NNE 22:57:34 31° ENE 22:57:34 31° ENE
Cosmos 1842 3.8 22:58:24 44° ENE 22:58:24 44° ENE 23:01:44 10° NNE
Meteor 1-21 4.2 23:01:20 42° S 23:03:21 77° E 23:09:11 10° NNE
Nadezhda 4 Rocket 4.5 23:05:54 38° ESE 23:07:17 44° E 23:13:13 10° NNE
Cosmos 1943 3.4 23:05:16 19° SW 23:09:22 69° WNW 23:15:04 10° NNE
Cosmos 407 Rocket 3.4 23:07:32 42° SSW 23:09:22 89° SW 23:14:39 10° NNE
Cosmos 1634 Rocket 4.5 23:03:35 10° NNW 23:09:34 54° W 23:12:36 29° SSW
ATLAS 3B R/B 2.9 23:04:02 10° SSW 23:11:45 85° ESE 23:19:20 10° NE
Cosmos 1766 3.4 23:13:41 10° NNW 23:17:41 70° W 23:17:41 70° W
USA 234 4.1 23:17:55 31° SSW 23:19:47 36° SW 23:25:46 10° WNW
Cosmos 1943 Rocket 2.4 23:17:08 10° NNW 23:22:37 57° ENE 23:23:46 48° ESE
CZ-4B R/B 4.3 23:24:16 11° ENE 23:24:16 11° ENE 23:25:05 10° NE
Cosmos 1954 Rocket 3.9 23:27:14 65° SSE 23:27:56 77° ESE 23:33:16 10° NNE
ISS -0.9 23:35:41 19° NNE 23:35:41 19° NNE 23:36:54 10° NE
Cosmos 2279 Rocket 4.3 23:29:08 10° NNW 23:35:16 59° W 23:37:19 40° SSW
H-2A R/B 2.8 23:40:36 35° WSW 23:41:29 38° W 23:46:09 10° NNW
Cosmos 1656 Rocket 4.5 23:36:18 10° N 23:41:40 40° ENE 23:42:55 36° E
Cosmos 1741 Rocket 4.4 23:43:43 49° E 23:43:43 49° E 23:48:29 10° NNE
USA 238 DEB 3.7 23:42:40 52° SSE 23:44:03 62° ESE 23:51:01 10° NE
USA 238 3.7 23:42:48 52° SSE 23:44:08 61° ESE 23:51:06 10° NE
Atlas Centaur 2 3.5 23:37:05 10° WSW 23:43:36 38° SSW 23:43:36 38° SSW
Cosmos 1470 4.1 23:43:52 10° N 23:46:34 33° NE 23:46:34 33° NE
Cosmos 1953 3.0 23:46:00 10° NNW 23:49:20 50° WNW 23:49:20 50° WNW
Cosmos 1932 4.3 23:50:52 56° SSW 23:52:18 86° ESE 23:58:34 10° NNE
Cosmos 1805 4.0 23:49:49 10° NNW 23:52:59 51° NW 23:52:59 51° NW
Cosmos 2084 4.0 23:49:51 10° NNW 23:53:33 51° NNE 23:53:33 51° NNE
Cosmos 2369 Rocket 3.3 23:49:10 10° NW 23:54:04 30° WSW 23:54:55 29° WSW
Cosmos 2221 4.0 23:52:06 10° NNE 23:55:19 28° ENE 23:55:19 28° ENE
